Brownwood, TX

3:47 PM CDT on August 28, 2016 (GMT -0500)
Brownwood Regional

Weather History for KBWD - May, 2014

Change the Weather History Date:

Friday, May 16, 2014

  Actual Average (KABI) Record (KABI)
Temperature  
Mean Temperature 66 °F 73 °F  
Max Temperature 89 °F 85 °F 106 °F (2000)
Min Temperature 44 °F 62 °F 43 °F (1916)
Degree Days  
Heating Degree Days 0 0  
Month to date heating degree days 13  
Since 1 July heating degree days 2555  
Cooling Degree Days 2 9  
Month to date cooling degree days 111  
Year to date cooling degree days 244  
Growing Degree Days 16 (Base 50)    
Moisture  
Dew Point 37 °F    
Average Humidity 39    
Maximum Humidity 93    
Minimum Humidity 10    
Precipitation  
Precipitation 0.00 in 0.10 in 2.01 in (2009)
Month to date precipitation 1.42  
Year to date precipitation 7.18  
Sea Level Pressure  
Sea Level Pressure 30.03 in    
Wind  
Wind Speed 7 mph (South)    
Max Wind Speed 21 mph    
Max Gust Speed 30 mph    
Visibility 10 miles    
Events      
T = Trace of Precipitation, MM = Missing Value Source: NWS Daily Summary

Daily Weather History Graph

Daily Weather History Graph

Search for Another Location

Airport or City:

Trip Planner

Search our weather history database for the weather conditions in past years. The results will help you decide how hot, cold, wet, or windy it might be!

Date:

Astronomy

May. 16, 2014 Rise Set
Actual Time 6:38 AM CDT 8:26 PM CDT
Civil Twilight 6:11 AM CDT 8:53 PM CDT
Nautical Twilight 5:39 AM CDT 9:25 PM CDT
Astronomical Twilight 5:04 AM CDT 10:00 PM CDT
Moon 10:35 PM CDT (5/16) 8:21 AM CDT (5/16)
Length of Visible Light 14h 42m
Length of Day
13h 48m
Waning Gibbous, 95% of the Moon is Illuminated
May 16
Waning Gibbous
May 21
Last Quarter
May 28
New
Jun 5
First Quarter
Jun 12
Full

Hourly Weather History & Observations

Time (CDT) Temp. Dew Point Humidity Pressure Visibility Wind Dir Wind Speed Gust Speed Precip Events Conditions
12:15 AM 59.0 °F 32.0 °F 36% 30.09 in 10.0 mi SE 3.5 mph - N/A   Partly Cloudy
12:35 AM 53.6 °F 44.6 °F 72% 30.09 in 10.0 mi SE 6.9 mph - N/A   Partly Cloudy
12:55 AM 59.0 °F 35.6 °F 42% 30.09 in 10.0 mi SSE 5.8 mph - N/A   Partly Cloudy
1:15 AM 57.2 °F 37.4 °F 48% 30.09 in 10.0 mi SE 4.6 mph - N/A   Partly Cloudy
1:35 AM 57.2 °F 35.6 °F 44% 30.09 in 10.0 mi ESE 4.6 mph - N/A   Clear
1:55 AM 53.6 °F 37.4 °F 54% 30.09 in 10.0 mi East 5.8 mph - N/A   Clear
2:15 AM 50.0 °F 41.0 °F 71% 30.08 in 10.0 mi ESE 3.5 mph - N/A   Partly Cloudy
2:35 AM 55.4 °F 33.8 °F 44% 30.08 in 10.0 mi ENE 4.6 mph - N/A   Partly Cloudy
2:55 AM 53.6 °F 37.4 °F 54% 30.09 in 10.0 mi Calm Calm - N/A   Partly Cloudy
3:15 AM 48.2 °F 41.0 °F 76% 30.10 in 10.0 mi Calm Calm - N/A   Partly Cloudy
3:35 AM 50.0 °F 42.8 °F 76% 30.10 in 10.0 mi Calm Calm - N/A   Clear
3:55 AM 48.2 °F 42.8 °F 82% 30.09 in 10.0 mi ENE 4.6 mph - N/A   Clear
4:15 AM 48.2 °F 41.0 °F 76% 30.09 in 10.0 mi NNW 3.5 mph - N/A   Partly Cloudy
4:35 AM 48.2 °F 42.8 °F 82% 30.10 in 10.0 mi Calm Calm - N/A   Partly Cloudy
5:15 AM 46.4 °F 44.6 °F 93% 30.10 in 10.0 mi Calm Calm - N/A   Partly Cloudy
5:35 AM 44.6 °F 41.0 °F 87% 30.11 in 10.0 mi Calm Calm - N/A   Clear
5:55 AM 46.4 °F 41.0 °F 81% 30.12 in 10.0 mi Calm Calm - N/A   Partly Cloudy
6:15 AM 46.4 °F 42.8 °F 87% 30.12 in 10.0 mi Calm Calm - N/A   Clear
6:35 AM 44.6 °F 42.8 °F 93% 30.12 in 10.0 mi Calm Calm - N/A   Clear
6:55 AM 44.6 °F 42.8 °F 93% 30.13 in 10.0 mi Calm Calm - N/A   Clear
7:15 AM 46.4 °F 44.6 °F 93% 30.13 in 10.0 mi Calm Calm - N/A   Clear
7:35 AM 48.2 °F 46.4 °F 93% 30.14 in 10.0 mi Calm Calm - N/A   Clear
7:55 AM 51.8 °F 46.4 °F 82% 30.14 in 10.0 mi Calm Calm - N/A   Clear
8:15 AM 53.6 °F 44.6 °F 72% 30.14 in 10.0 mi Calm Calm - N/A   Clear
8:35 AM 55.4 °F 46.4 °F 72% 30.14 in 10.0 mi Calm Calm - N/A   Clear
8:55 AM 59.0 °F 48.2 °F 67% 30.14 in 10.0 mi Calm Calm - N/A   Clear
9:15 AM 62.6 °F 46.4 °F 55% 30.14 in 10.0 mi Calm Calm - N/A   Clear
9:35 AM 66.2 °F 41.0 °F 40% 30.13 in 10.0 mi SSW 4.6 mph - N/A   Clear
9:55 AM 68.0 °F 42.8 °F 40% 30.13 in 10.0 mi SW 5.8 mph - N/A   Clear
10:15 AM 71.6 °F 37.4 °F 29% 30.13 in 10.0 mi SSW 11.5 mph 17.3 mph N/A   Clear
10:35 AM 73.4 °F 37.4 °F 27% 30.12 in 10.0 mi SSW 10.4 mph - N/A   Clear
10:55 AM 73.4 °F 39.2 °F 29% 30.11 in 10.0 mi South 8.1 mph - N/A   Clear
11:15 AM 75.2 °F 39.2 °F 27% 30.11 in 10.0 mi SSW 9.2 mph - N/A   Clear
11:35 AM 77.0 °F 39.2 °F 26% 30.10 in 10.0 mi SSW 10.4 mph 16.1 mph N/A   Clear
11:55 AM 78.8 °F 39.2 °F 24% 30.09 in 10.0 mi SSW 12.7 mph 16.1 mph N/A   Clear
12:15 PM 80.6 °F 39.2 °F 23% 30.08 in 10.0 mi SSW 10.4 mph 21.9 mph N/A   Clear
12:35 PM 80.6 °F 39.2 °F 23% 30.07 in 10.0 mi South 12.7 mph 21.9 mph N/A   Clear
12:55 PM 82.4 °F 41.0 °F 23% 30.06 in 10.0 mi South 13.8 mph - N/A   Clear
1:15 PM 82.4 °F 41.0 °F 23% 30.05 in 10.0 mi SSW 13.8 mph 19.6 mph N/A   Clear
1:35 PM 84.2 °F 39.2 °F 20% 30.03 in 10.0 mi South 12.7 mph 19.6 mph N/A   Clear
1:55 PM 84.2 °F 39.2 °F 20% 30.02 in 10.0 mi SSW 15.0 mph 20.7 mph N/A   Clear
2:15 PM 86.0 °F 39.2 °F 19% 30.01 in 10.0 mi SSW 12.7 mph - N/A   Clear
2:35 PM 86.0 °F 37.4 °F 18% 30.00 in 10.0 mi South 15.0 mph 23.0 mph N/A   Clear
2:55 PM 87.8 °F 33.8 °F 15% 29.99 in 10.0 mi SSW 15.0 mph 23.0 mph N/A   Clear
3:15 PM 89.6 °F 33.8 °F 14% 29.98 in 10.0 mi SSW 20.7 mph 27.6 mph N/A   Clear
3:35 PM 89.6 °F 32.0 °F 13% 29.96 in 10.0 mi South 19.6 mph 28.8 mph N/A   Clear
3:55 PM 89.6 °F 32.0 °F 13% 29.95 in 10.0 mi South 18.4 mph 24.2 mph N/A   Clear
4:15 PM 89.6 °F 30.2 °F 12% 29.94 in 10.0 mi South 18.4 mph 26.5 mph N/A   Clear
4:35 PM 89.6 °F 32.0 °F 13% 29.93 in 10.0 mi South 17.3 mph 25.3 mph N/A   Clear
4:55 PM 89.6 °F 30.2 °F 12% 29.92 in 10.0 mi South 17.3 mph 25.3 mph N/A   Clear
5:15 PM 89.6 °F 28.4 °F 11% 29.91 in 10.0 mi South 12.7 mph 27.6 mph N/A   Clear
5:35 PM 89.6 °F 28.4 °F 11% 29.91 in 10.0 mi SW 17.3 mph 26.5 mph N/A   Clear
5:55 PM 89.6 °F 28.4 °F 11% 29.90 in 10.0 mi SSW 17.3 mph 29.9 mph N/A   Clear
6:15 PM 89.6 °F 28.4 °F 11% 29.90 in 10.0 mi SSW 13.8 mph 23.0 mph N/A   Clear
6:35 PM 89.6 °F 26.6 °F 10% 29.89 in 10.0 mi SSW 19.6 mph 29.9 mph N/A   Clear
6:55 PM 87.8 °F 30.2 °F 13% 29.89 in 10.0 mi South 12.7 mph 19.6 mph N/A   Clear
7:15 PM 87.8 °F 28.4 °F 12% 29.88 in 10.0 mi SSW 19.6 mph 24.2 mph N/A   Clear
7:35 PM 86.0 °F 28.4 °F 12% 29.88 in 10.0 mi South 12.7 mph 20.7 mph N/A   Clear
7:55 PM 84.2 °F 28.4 °F 13% 29.88 in 10.0 mi South 17.3 mph 24.2 mph N/A   Clear
8:15 PM 82.4 °F 32.0 °F 16% 29.89 in 10.0 mi South 16.1 mph 25.3 mph N/A   Clear
8:35 PM 82.4 °F 28.4 °F 14% 29.89 in 10.0 mi South 15.0 mph 24.2 mph N/A   Clear
8:55 PM 80.6 °F 28.4 °F 15% 29.90 in 10.0 mi South 12.7 mph 23.0 mph N/A   Clear
9:15 PM 80.6 °F 28.4 °F 15% 29.90 in 10.0 mi South 15.0 mph 26.5 mph N/A   Clear
9:35 PM 78.8 °F 28.4 °F 16% 29.91 in 10.0 mi South 15.0 mph 24.2 mph N/A   Clear
9:55 PM 77.0 °F 28.4 °F 17% 29.92 in 10.0 mi South 11.5 mph 18.4 mph N/A   Partly Cloudy
10:15 PM 77.0 °F 30.2 °F 18% 29.92 in 10.0 mi South 15.0 mph 21.9 mph N/A   Clear
10:35 PM 75.2 °F 32.0 °F 21% 29.92 in 10.0 mi South 12.7 mph 20.7 mph N/A   Clear
10:55 PM 75.2 °F 32.0 °F 21% 29.92 in 10.0 mi South 11.5 mph 18.4 mph N/A   Clear
11:15 PM 73.4 °F 32.0 °F 22% 29.93 in 10.0 mi South 10.4 mph - N/A   Clear
11:35 PM 73.4 °F 32.0 °F 22% 29.93 in 10.0 mi South 9.2 mph - N/A   Partly Cloudy
11:55 PM 73.4 °F 32.0 °F 22% 29.93 in 10.0 mi South 10.4 mph 16.1 mph N/A   Partly Cloudy